Effective Sunday, March 17, 2024, the National Weather Service National Data Buoy Center will discontinue its Dial-A-Buoy Interactive Voice Response system. For more information, see Service Change Notice 24-06 (PDF).

Station WGXA2 - Wrangell Harbor Image indicating link to RSS feed of recent meteorological observations for station WGXA2


Conditions at WGXA2 as of
(6:33 am AKST)
1533 GMT on 03/02/2024:
     

Click on the graph icon in the table below to see a time series plot of the last five days of that observation.

5-day plot - Wind Direction Wind Direction (WDIR): E ( 100 deg true )
5-day plot - Wind Speed Wind Speed (WSPD): 6 kts
5-day plot - Wind Gust Wind Gust (GST): 12 kts
5-day plot - Atmospheric Pressure Atmospheric Pressure (PRES):29.52 in
5-day plot - Air Temperature Air Temperature (ATMP): 25.3 °F
5-day plot - Dew Point Dew Point (DEWP): 8.1 °F
5-day plot - Wind Chill Wind Chill (CHILL): 17.6 °F
5-day plot - Wind Speed at 10 Meters Wind Speed at 10 meters (WSPD10M): 6 kts
5-day plot - Wind Speed at 20 Meters Wind Speed at 20 meters (WSPD20M): 6 kts
5-day plot -  Wind Speed, Wind Gust and Atmospheric Pressure Combined plot of Wind Speed, Gust, and Air Pressure
Previous observations
TIME
(AKST)
5-day plot - Wind Direction
WDIR
 
5-day plot - Wind Speed
WSPD
kts
5-day plot - Wind Gust
GST
kts
5-day plot - Wave Height
WVHT
ft
5-day plot - Dominant Wave Period
DPD
sec
5-day plot - Average Wave Period
APD
sec
5-day plot - Mean Wave Direction
MWD
 
5-day plot - Atmospheric Pressure
PRES
in
5-day plot - Pressure Tendency
PTDY
in
5-day plot - Air Temperature
ATMP
°F
5-day plot - Water Temperature
WTMP
°F
5-day plot - Dew Point
DEWP
°F
5-day plot - Salinity
SAL
psu
5-day plot - Visibility
VIS
nmi
5-day plot - Tide (above MLLW)
TIDE
ft
2024-03-02 06:23 am E 7 16----29.52- 25.3- 8.4---
2024-03-02 06:13 am E 7 11----29.52- 25.5- 8.2---
2024-03-02 06:03 am E 8 13----29.52- 25.7- 8.6---
2024-03-02 05:53 am E 7 12----29.52- 25.9- 8.2---
2024-03-02 05:43 am E 7 14----29.52- 25.9- 8.4---
2024-03-02 05:33 am E 8 14----29.51- 25.9- 8.8---
2024-03-02 05:23 am E 7 15----29.51- 25.9- 9.0---
2024-03-02 05:13 am E 5 11----29.51- 25.9- 8.6---
2024-03-02 05:03 amESE 5 12----29.51- 26.1- 9.0---
2024-03-02 04:53 amESE 5 13----29.51- 26.1- 8.6---
2024-03-02 04:43 am E 4 10----29.51- 26.2- 8.4---
2024-03-02 04:33 am E 5 14----29.51- 26.2- 8.4---
2024-03-02 04:23 am E 4 12----29.51- 26.4- 8.2---
2024-03-02 04:13 amESE 6 13----29.50- 26.4- 9.3---
2024-03-02 04:03 am E 5 10----29.50- 26.6- 9.5---
2024-03-02 03:53 am E 6 11----29.50- 26.6- 9.3---
2024-03-02 03:43 am E 6 12----29.50- 26.6- 9.3---
2024-03-02 03:33 am E 6 13----29.50- 26.6- 9.3---
2024-03-02 03:23 am E 5 10----29.50- 26.8- 9.3---
2024-03-02 03:13 amESE 4 9----29.50- 27.0- 9.7---
2024-03-02 03:03 am E 5 14----29.50- 27.0- 8.8---
2024-03-02 02:53 am E 7 14----29.50- 27.0- 9.0---
2024-03-02 02:43 amESE 6 12----29.50- 27.0- 9.7---
2024-03-02 02:33 am E 5 10----29.50- 27.0- 9.5---
2024-03-02 02:23 amESE 4 8----29.50- 27.0- 9.7---
2024-03-02 02:13 am E 5 10----29.50- 27.0- 9.1---
2024-03-02 02:03 am E 5 10----29.50- 27.0- 8.8---
2024-03-02 01:53 am E 5 11----29.49- 27.1- 8.2---
2024-03-02 01:43 am E 7 14----29.49- 27.1- 8.6---
2024-03-02 01:33 am E 9 14----29.49- 27.0- 8.4---
2024-03-02 01:23 am E 9 15----29.49- 27.0- 8.4---
2024-03-02 01:13 am E 7 20----29.49- 27.1- 8.8---
2024-03-02 01:03 am E 8 19----29.49- 27.1- 9.1---
2024-03-02 12:53 am E 4 9----29.50- 27.0- 9.5---
2024-03-02 12:43 am E 6 13----29.49- 27.3- 9.0---
2024-03-02 12:33 am E 6 13----29.49- 27.3- 9.0---
2024-03-02 12:23 am E 6 13----29.49- 27.5- 9.3---
2024-03-02 12:14 am E 7 13----29.49- 27.7- 9.1---
2024-03-02 12:03 am E 8 14----29.49- 27.5- 9.1---
2024-03-01 11:53 pm E 9 18----29.49- 27.7- 8.4---
2024-03-01 11:43 pm E 9 16----29.49- 27.9- 8.6---
2024-03-01 11:33 pm E 7 14----29.49- 27.7- 9.1---
2024-03-01 11:23 pm E 8 12----29.48- 27.9- 9.5---
2024-03-01 11:13 pm E 6 14----29.49- 27.7- 9.7---
2024-03-01 11:03 pm E 6 11----29.49- 27.9- 9.9---
2024-03-01 10:53 pmESE 6 11----29.48- 27.9- 10.4---
2024-03-01 10:43 pm E 8 16----29.48- 27.9- 9.1---
2024-03-01 10:33 pm E 9 15----29.48- 28.0- 8.8---
2024-03-01 10:23 pm E 10 18----29.48- 28.2- 9.1---
2024-03-01 10:13 pm E 10 16----29.48- 28.0- 9.1---
2024-03-01 10:03 pm E 10 18----29.47- 28.0- 9.3---
2024-03-01 09:43 pm E 10 17----29.47- 28.2- 9.7---
2024-03-01 09:33 pm E 10 17----29.47- 28.2- 9.7---
2024-03-01 09:23 pm E 9 16----29.47- 28.2- 9.9---
2024-03-01 09:13 pm E 9 18----29.47- 28.4- 9.3---
2024-03-01 09:03 pm E 10 18----29.47- 28.4- 9.5---
2024-03-01 08:53 pm E 9 19----29.47- 28.6- 9.9---
2024-03-01 08:43 pm E 9 15----29.47- 28.6- 9.9---
2024-03-01 08:33 pm E 8 16----29.47- 28.6- 10.2---
2024-03-01 08:23 pm E 9 21----29.46- 28.8- 9.9---
2024-03-01 08:13 pm E 9 18----29.46- 28.9- 10.2---
2024-03-01 08:03 pm E 11 20----29.46- 28.9- 10.0---
2024-03-01 07:53 pm E 11 19----29.46- 29.1- 10.2---
2024-03-01 07:43 pm E 8 15----29.46- 29.1- 10.4---
2024-03-01 07:33 pm E 10 19----29.45- 29.5- 10.6---
2024-03-01 07:23 pm E 9 21----29.45- 29.5- 10.9---
2024-03-01 07:13 pm E 11 20----29.45- 29.5- 10.8---
2024-03-01 07:03 pm E 11 18----29.45- 29.5- 10.9---
2024-03-01 06:53 pm E 8 15----29.45- 29.8- 11.5---
2024-03-01 06:43 pm E 8 13----29.45- 30.0- 11.3---
2024-03-01 06:33 pm E 9 16----29.44- 30.0- 11.5---
2024-03-01 06:23 pm E 11 21----29.44- 30.2- 11.1---
2024-03-01 06:13 pm E 10 16----29.44- 30.4- 11.5---
2024-03-01 06:03 pm E 9 16----29.44- 30.7- 12.0---
2024-03-01 05:53 pm E 7 15----29.44- 30.7- 12.0---
2024-03-01 05:43 pm E 8 15----29.43- 31.1- 11.8---
2024-03-01 05:33 pm E 7 14----29.43- 31.3- 12.0---
2024-03-01 05:23 pm E 7 16----29.43- 31.6- 11.8---
2024-03-01 05:13 pmENE 7 14----29.43- 32.0- 11.7---
2024-03-01 05:03 pmENE 7 12----29.42- 32.2- 11.3---
2024-03-01 04:53 pmENE 6 14----29.42- 32.5- 11.7---
2024-03-01 04:43 pm E 7 14----29.42- 32.7- 11.8---
2024-03-01 04:33 pmENE 7 13----29.42- 33.1- 11.8---
2024-03-01 04:23 pmENE 6 12----29.42- 33.4- 12.2---
2024-03-01 04:13 pmENE 6 14----29.42- 33.4- 11.8---
2024-03-01 04:03 pmENE 7 15----29.42- 33.6- 11.8---
2024-03-01 03:53 pmENE 7 13----29.41- 34.0- 11.8---
2024-03-01 03:43 pmENE 6 13----29.41- 34.3- 12.2---
2024-03-01 03:33 pmENE 6 11----29.41- 34.3- 12.2---
2024-03-01 03:23 pmENE 6 12----29.41- 34.3- 11.8---
2024-03-01 03:13 pmENE 7 13----29.41- 34.2- 11.1---
2024-03-01 02:53 pmENE 6 11----29.40- 34.2- 11.1---
2024-03-01 02:43 pmENE 8 16----29.40- 34.3- 10.9---
2024-03-01 02:33 pmENE 7 13----29.40- 34.3- 10.9---
2024-03-01 02:23 pmENE 8 16----29.40- 34.3- 11.1---
2024-03-01 02:13 pmENE 8 17----29.40- 34.3- 10.6---
2024-03-01 02:03 pmENE 8 16----29.39- 34.3- 11.1---
2024-03-01 01:53 pm NE 7 16----29.39- 34.3- 10.8---
2024-03-01 01:43 pmENE 6 11----29.39- 34.7- 10.8---
2024-03-01 01:33 pmENE 8 16----29.39- 34.5- 10.9---
2024-03-01 01:23 pm NE 8 14----29.39- 34.3- 10.0---
2024-03-01 01:13 pmENE 6 11----29.39- 34.9- 10.4---
2024-03-01 01:03 pm NE 6 13----29.39- 34.9- 10.6---
2024-03-01 12:53 pmENE 8 17----29.39- 34.3- 10.4---
2024-03-01 12:43 pmENE 7 15----29.39- 34.0- 10.8---
2024-03-01 12:33 pm E 7 13----29.39- 34.0- 10.9---
2024-03-01 12:23 pmENE 7 13----29.40- 33.8- 10.8---
2024-03-01 12:13 pm E 6 12----29.40- 34.0- 11.5---
2024-03-01 12:03 pmENE 8 15----29.40- 34.0- 11.1---
2024-03-01 11:53 amENE 7 14----29.40- 33.6- 10.6---
2024-03-01 11:43 am E 7 14----29.40- 33.6- 11.1---
2024-03-01 11:33 amENE 8 19----29.40- 33.6- 10.9---
2024-03-01 11:23 amENE 6 18----29.40- 33.3- 10.9---
2024-03-01 11:13 amESE 5 12----29.40- 33.1- 11.7---
2024-03-01 11:04 am E 3 8----29.40- 33.3- 11.5---
2024-03-01 10:53 am E 4 15----29.40- 32.7- 11.1---
2024-03-01 10:43 amENE 6 16----29.40- 32.5- 10.9---
2024-03-01 10:33 am E 6 15----29.40- 32.4- 10.9---
2024-03-01 10:23 am E 6 13----29.40- 32.2- 10.8---
2024-03-01 10:13 am E 7 13----29.40- 32.0- 10.8---
2024-03-01 10:03 amENE 6 14----29.40- 31.8- 10.8---
2024-03-01 09:53 amENE 6 12----29.40- 31.6- 11.3---
2024-03-01 09:43 amENE 8 15----29.39- 31.3- 10.6---
2024-03-01 09:33 am E 6 14----29.39- 30.9- 11.8---
2024-03-01 09:23 amENE 7 14----29.39- 30.6- 11.3---
2024-03-01 09:13 amENE 7 12----29.39- 30.4- 11.8---
2024-03-01 09:03 am E 4 12----29.39- 30.6- 12.7---
2024-03-01 08:53 am E 5 11----29.39- 30.0- 12.2---
2024-03-01 08:43 am E 6 11----29.39- 29.5- 12.0---
2024-03-01 08:33 amESE 5 9----29.39- 29.1- 12.7---
2024-03-01 08:23 am E 5 8----29.39- 28.9- 11.8---
2024-03-01 08:13 am E 4 9----29.39- 28.9- 11.7---
2024-03-01 08:03 am E 5 12----29.39- 28.9- 12.4---
2024-03-01 07:53 am E 5 11----29.39- 29.1- 12.2---
2024-03-01 07:43 am E 8 14----29.39- 29.1- 11.7---
2024-03-01 07:34 am E 8 16----29.38- 28.9- 12.0---
2024-03-01 07:24 am E 8 15----29.38- 28.9- 12.2---
2024-03-01 07:13 am E 7 12----29.38- 28.9- 12.4---
2024-03-01 07:03 am E 5 11----29.39- 28.9- 12.2---
2024-03-01 06:53 amESE 6 12----29.39- 28.8- 12.4---
2024-03-01 06:43 amESE 5 12----29.39- 28.9- 12.2---
2024-03-01 06:33 am E 5 11----29.38- 28.9- 12.6---
2024-03-01 06:23 amESE 7 13----29.38- 29.1- 12.2---
2024-03-01 06:13 am E 7 13----29.38- 29.1- 12.6---
2024-03-01 06:03 am E 8 14----29.37- 28.9- 12.6---
2024-03-01 05:53 am E 6 13----29.37- 29.1- 12.0---